Weather History for KCEZ - December, 2013

Change the Weather History Date:

Thursday, December 5, 2013

  Actual Average Record
Temperature  
Mean Temperature 13 °F 30 °F  
Max Temperature 27 °F 44 °F 58 °F (2012)
Min Temperature -2 °F 17 °F -2 °F (2013)
Degree Days  
Heating Degree Days 52 35  
Month to date heating degree days 189 172  
Since 1 July heating degree days 1661 1697  
Cooling Degree Days 0 0  
Month to date cooling degree days 0 0  
Year to date cooling degree days 667 426  
Moisture  
Dew Point 9 °F    
Average Humidity 80    
Maximum Humidity 95    
Minimum Humidity 65    
Precipitation  
Precipitation T in 0.02 in 0.13 in (1998)
Month to date precipitation T 0.12  
Year to date precipitation 13.32 12.85  
Sea Level Pressure  
Sea Level Pressure 30.02 in    
Wind  
Wind Speed 4 mph (NNE)    
Max Wind Speed 10 mph    
Max Gust Speed 13 mph    
Visibility 10 miles    
Events Snow    
T = Trace of Precipitation, MM = Missing Value Source: NWS Daily Summary

Daily Weather History Graph

Daily Weather History Graph

Search for Another Location

Airport or City:

Trip Planner

Search our weather history database for the weather conditions in past years. The results will help you decide how hot, cold, wet, or windy it might be!

Date:

Astronomy

Dec. 05, 2013 Rise Set
Actual Time 7:13 AM MST 4:56 PM MST
Civil Twilight 6:44 AM MST 5:25 PM MST
Nautical Twilight 6:12 AM MST 5:57 PM MST
Astronomical Twilight 5:40 AM MST 6:29 PM MST
Moon 9:38 AM MST (12/5) 8:18 PM MST (12/5)
Length of Visible Light 10h 40m
Length of Day
9h 42m
Waxing Crescent, 11% of the Moon is Illuminated
Dec 5
Waxing Crescent
Dec 9
First Quarter
Dec 17
Full
Dec 25
Last Quarter
Jan 1
New

Hourly Weather History & Observations

Time (MST) Temp. Windchill Dew Point Humidity Pressure Visibility Wind Dir Wind Speed Gust Speed Precip Events Conditions
12:53 AM 1.9 °F -9.2 °F -0.9 °F 88% 30.03 in 10.0 mi ENE 5.8 mph - N/A   Clear
1:53 AM 1.0 °F -11.7 °F -2.9 °F 83% 30.03 in 10.0 mi ENE 6.9 mph - N/A   Clear
2:53 AM 1.9 °F -9.2 °F -2.0 °F 83% 30.04 in 10.0 mi East 5.8 mph - N/A   Clear
3:53 AM -0.0 °F -11.6 °F -4.0 °F 83% 30.05 in 10.0 mi ENE 5.8 mph - N/A   Clear
4:53 AM 1.0 °F -10.3 °F -2.9 °F 83% 30.04 in 10.0 mi East 5.8 mph - N/A   Clear
5:53 AM -2.0 °F -10.1 °F -6.0 °F 83% 30.08 in 10.0 mi ENE 3.5 mph - N/A   Clear
6:53 AM -0.0 °F - -4.0 °F 83% 30.08 in 10.0 mi Calm Calm - N/A   Mostly Cloudy
7:53 AM 6.1 °F -4.3 °F 1.9 °F 83% 30.06 in 10.0 mi ENE 5.8 mph - N/A   Overcast
8:53 AM 10.9 °F - 6.1 °F 81% 30.05 in 10.0 mi Calm Calm - N/A   Overcast
9:53 AM 15.1 °F - 9.0 °F 77% 30.06 in 10.0 mi Calm Calm - N/A   Overcast
10:53 AM 19.9 °F - 10.0 °F 65% 30.04 in 10.0 mi Calm Calm - N/A   Overcast
11:53 AM 23.0 °F - 12.9 °F 65% 30.01 in 10.0 mi Calm Calm - N/A   Overcast
12:53 PM 26.1 °F 21.9 °F 17.1 °F 69% 29.98 in 10.0 mi South 3.5 mph - N/A   Overcast
1:53 PM 26.1 °F 17.6 °F 18.0 °F 71% 29.96 in 10.0 mi SW 8.1 mph - N/A   Overcast
2:53 PM 27.0 °F 20.5 °F 17.1 °F 66% 29.96 in 10.0 mi SW 5.8 mph - N/A   Overcast
3:53 PM 24.1 °F 16.0 °F 18.0 °F 77% 30.00 in 10.0 mi West 6.9 mph - N/A   Overcast
4:53 PM 21.9 °F 15.7 °F 18.0 °F 85% 30.01 in 10.0 mi WNW 4.6 mph - 0.00 in   Overcast
5:53 PM 21.0 °F 16.2 °F 18.0 °F 88% 30.04 in 7.0 mi WNW 3.5 mph - 0.00 in Snow Light Snow
6:43 PM 19.9 °F - 18.0 °F 92% 29.87 in 10.0 mi Calm Calm - 0.00 in   Overcast
6:53 PM 19.9 °F - 17.1 °F 89% 30.06 in 10.0 mi Calm Calm - 0.00 in   Mostly Cloudy
7:37 PM 19.9 °F - 18.0 °F 92% 29.89 in 10.0 mi Calm Calm - N/A   Overcast
7:53 PM 19.0 °F 13.9 °F 17.1 °F 92% 30.04 in 10.0 mi WNW 3.5 mph - N/A   Overcast
8:53 PM 17.1 °F 11.7 °F 14.0 °F 88% 30.04 in 10.0 mi West 3.5 mph - N/A   Overcast
9:53 PM 16.0 °F - 14.0 °F 92% 30.04 in 10.0 mi Calm Calm - N/A   Overcast
10:28 PM 14.0 °F 6.5 °F 12.0 °F 92% 29.92 in 10.0 mi North 4.6 mph - N/A   Scattered Clouds
10:53 PM 12.9 °F 2.6 °F 10.0 °F 88% 30.04 in 10.0 mi East 6.9 mph - N/A   Partly Cloudy
11:53 PM 12.9 °F 2.6 °F 10.0 °F 88% 30.04 in 10.0 mi NE 6.9 mph - N/A   Overcast